Погода в Жилинде

Россия / Республика Саха (Якутия)     70°08′21″N   113°59′16″E
темп.,
°C
ветер,
м/с
пор.,
м/с
влажн.,
%
обл.,
%
осадки,
мм/ч
давл.,
гПа
погр.,
м
27 февраля, сб
сб2700:00−35ю228750 0.0 103219
03:00−35ююв118867 0.0 103019
06:00−32ююв118697 0.0 103019
09:00−31юв118698 0.0 103019
12:00−29всв1184100 0.0 1029122
15:00−27в1186100 0.0 1028225
18:00−29всв1196100 0.0 102819
21:00−30св119998 0.1 102719
28 февраля, вс
вс2800:00−31ссв2210090 0.0 102719
03:00−33ссв1110092 0.1 102619
06:00−31сз119899 0.0 102719
09:00−31с239799 0.1 102639
12:00−29ссв1294100 0.0 1026216
15:00−28с2392100 0.1 1026352
18:00−28ссв3497100 0.1 1027144
21:00−29ссв2498100 0.2 1028151
1 марта, пн
пн100:00−30ссз2498100 0.1 1028167
03:00−30с2497100 0.1 1027151
06:00−31ссз2497100 0.0 1028122
09:00−32ссз2397100 0.1 102742
12:00−31с4696100 0.0 1027306
15:00−30с4694100 0.1 1026389
18:00−32ссз3398100 0.0 102640
21:00−33ссз2398100 0.1 102675
2 марта, вт
вт200:00−34ссз2298100 0.1 102628
03:00−36ссз2299100 0.1 102519
06:00−38ссз11100100 0.0 102619
09:00−39сз11100100 0.0 102718
12:00−36сз119586 0.0 1027105
15:00−35сз128785 0.0 1028282
18:00−38ссз119687 0.0 102919
21:00−40с1110081 0.0 103018
3 марта, ср
ср300:00−41ссз1110046 0.0 103018
03:00−42сз0110051 0.0 103018
06:00−42сз1110083 0.0 103018
09:00−41ссз119882 0.0 103018
12:00−38ссз119375 0.0 1030104
15:00−36сз228880 0.0 1029243
18:00−38ссз129377 0.0 102919
21:00−41ссз119863 0.0 103018